Location: Borojevi?i
(45.0486°N, 16.2297°E)
Time: 07:23:09
(UTC+00:00)

Daily predictions for brighter satellites

Satellite Brightness Start Highest point End
(mag) Time Altitude Azimuth Time Altitude Azimuth Time Altitude Azimuth
Ariane Rocket 3.1 18:32:40 10° SSE 18:37:44 87° WSW 18:42:50 10° NNW
USA 234 4.2 18:33:44 10° E 18:39:45 41° NNE 18:45:47 10° NW
Cosmos 1992 Rocket 4.0 18:34:47 10° NNW 18:40:04 80° ENE 18:45:17 10° SSE
ARGOS 3.7 18:36:37 10° S 18:41:58 63° W 18:47:19 10° NNW
Resurs 1-3 4.1 18:37:55 10° SE 18:42:04 44° ENE 18:46:15 10° N
CZ-2C R/B 2.6 18:38:48 10° NNE 18:43:57 63° ESE 18:49:06 10° S
SL-8 R/B 3.8 18:40:48 10° WNW 18:45:40 89° SSW 18:50:31 10° ESE
Meteor 2-3 Rocket 4.3 18:41:17 10° SSW 18:47:02 67° WNW 18:52:51 10° N
USA 186 2.4 18:45:24 10° S 18:47:36 38° W 18:49:45 10° NNW
FREGAT/IRIS 3.1 18:49:04 10° S 18:51:38 51° W 18:54:14 10° NNW
Cosmos 2218 Rocket 4.1 18:47:08 10° S 18:53:19 83° W 18:59:30 10° N
H-2A R/B 3.7 18:51:57 10° SSW 18:56:40 35° W 19:01:18 10° NNW
Cosmos 1782 3.2 18:53:49 10° NNW 18:57:49 67° W 19:01:48 10° S
Cosmos 1805 Rocket 3.9 18:55:29 10° SSE 18:59:41 45° E 19:03:57 10° NNE
Cosmos 1980 Rocket 3.6 18:55:59 10° N 19:00:38 25° NE 19:05:14 10° ESE
ERBS 3.9 18:58:44 10° WSW 19:01:51 37° NNW 19:04:59 10° NE
DMSP B5D2-2 4.1 19:00:40 10° NNE 19:05:55 88° WNW 19:11:10 10° SSW
Cosmos 1140 Rocket 4.3 19:04:42 10° SSE 19:09:13 30° E 19:13:46 10° NE
ATLAS 5 CENTAUR R/B 2.4 19:03:39 10° NW 19:09:24 88° NE 19:15:44 12° SE
OE (NEXTSAT) 4.3 19:05:54 10° WNW 19:09:25 78° SSW 19:12:16 14° ESE
SL-4 R/B 2.5 19:06:06 10° SSW 19:09:45 33° SE 19:13:10 10° ENE
Cosmos 1833 Rocket 2.8 19:10:55 10° S 19:16:18 51° ESE 19:21:45 10° NE
Cosmos 1697 Rocket 3.0 19:11:18 10° NNW 19:16:49 53° ENE 19:21:20 15° SE
CENTAUR R/B 4.2 19:17:41 11° E 19:17:44 11° E 19:19:10 10° E
Cosmos 2228 Rocket 3.4 19:13:45 10° NNW 19:18:10 66° W 19:22:30 10° S
SPOT 3 Rocket 3.7 19:15:28 10° SSE 19:20:41 81° WSW 19:25:56 10° NNW
Cosmos 389 Rocket 2.3 19:17:45 10° N 19:21:13 84° E 19:24:21 12° SSE
Cosmos 1633 Rocket 3.9 19:18:04 13° SSE 19:21:21 31° E 19:25:16 10° NNE
Cosmos 1812 2.6 19:19:15 10° N 19:23:07 75° E 19:26:34 12° SSE
Cosmos 1727 Rocket 4.3 19:16:55 10° NNW 19:23:16 71° W 19:29:33 10° S
Cosmos 2251 Rocket 4.4 19:18:13 10° SW 19:23:20 53° WNW 19:28:32 10° NNE
Cosmos 1867 4.4 19:19:04 10° S 19:23:37 28° ESE 19:28:12 10° NE
Cosmos 1656 3.8 19:22:55 10° NNW 19:28:24 74° WSW 19:33:31 12° SSE
IRIDIUM 104 4.4 19:25:55 10° S 19:31:07 82° W 19:36:23 10° N
Resurs 01 Rocket 1.6 19:27:31 11° SSE 19:31:50 85° WSW 19:36:17 10° NNW
Cosmos 1707 Rocket 3.6 19:28:16 10° N 19:32:36 62° E 19:35:43 18° SSE
Cosmos 220 Rocket 3.9 19:28:39 10° NNW 19:32:54 88° WSW 19:36:04 17° SSE
Landsat 7 4.2 19:30:06 18° SE 19:33:21 47° ENE 19:37:55 10° N
Cosmos 1441 Rocket 3.3 19:34:04 10° SSW 19:37:52 75° W 19:41:40 10° N
FALCON 9 DEB 3.6 19:34:38 10° SSW 19:37:54 38° SE 19:41:11 10° ENE
Cosmos 1934 Rocket 4.2 19:32:19 10° SSE 19:38:28 55° E 19:44:40 10° NNE
Cosmos 614 Rocket 4.1 19:36:35 10° SSW 19:41:44 81° WNW 19:46:58 10° NNE
NOSS 3-2 (A) 4.0 19:37:49 10° S 19:42:42 31° ESE 19:48:05 10° NE
IGS 5A 3.6 19:41:07 23° SE 19:43:30 57° ENE 19:47:34 10° N
Cosmos 2360 4.3 19:38:07 10° NNW 19:43:50 65° ENE 19:47:32 22° SE
Cosmos 1470 Rocket 4.5 19:42:24 24° SE 19:44:00 30° E 19:47:52 10° NNE
USA 267 3.3 19:40:53 10° NE 19:47:28 88° NW 19:54:01 10° SW
NOSS 3-2 (C) 4.5 19:48:31 21° ESE 19:48:50 21° ESE 19:53:15 10° ENE
SWAS 4.3 19:44:56 10° SSW 19:49:14 76° ESE 19:53:34 10° NNE
GP-B 3.3 19:46:37 10° N 19:50:58 52° E 19:53:14 26° SSE
SL-24 R/B - RUBIN 2 4.5 19:44:30 10° NW 19:51:14 80° NE 19:55:11 24° SE
Cosmos 1821 Rocket 4.2 19:45:36 10° SSW 19:51:42 74° W 19:57:56 10° N
COSMOS 2406 3.8 19:48:39 10° SW 19:54:20 60° WNW 20:00:01 10° NNE
Shenzhou-11 Module 2.7 19:53:52 10° W 19:55:30 30° SW 19:55:30 30° SW
Cosmos 921 Rocket 4.0 19:52:58 10° N 19:56:45 31° ENE 19:58:03 25° E
ERS-1 Rocket 3.4 19:56:08 27° SE 19:58:31 46° ENE 20:03:18 10° N
Intercosmos 25 4.3 19:54:39 10° NNW 19:58:52 44° W 20:01:25 15° SSW
Cosmos 1862 Rocket 3.7 19:54:43 10° N 19:59:09 58° E 20:01:01 32° SE
SL-16 R/B 3.8 19:54:54 10° N 19:59:21 23° NE 20:02:26 15° E
Lacrosse 5 3.4 19:57:57 10° NW 20:02:25 30° NNE 20:06:22 12° E
Sich 1 3.9 19:59:45 10° SSW 20:04:03 50° WNW 20:08:24 10° N
Cosmos 2369 3.8 19:58:54 10° NNW 20:04:39 77° WSW 20:08:05 25° SSE
SAR-Lupe-2 4.2 20:04:22 10° NNE 20:07:36 36° E 20:07:36 36° E
Cosmos 2082 Rocket 2.1 20:03:39 10° SSW 20:09:20 80° ESE 20:15:02 10° NNE
Cosmos 1818 4.0 20:04:05 10° NW 20:09:25 56° WSW 20:12:24 25° S
BREEZE-M DEB (TANK) 3.2 20:07:11 10° WNW 20:09:26 29° N 20:09:55 25° NNE
Cosmos 1954 Rocket 4.0 20:06:50 16° S 20:11:02 65° ESE 20:16:19 10° NNE
Cosmos 2123 Rocket 4.0 20:07:37 10° N 20:13:51 83° W 20:18:06 22° S
Cosmos 2278 3.7 20:08:13 10° NNW 20:13:58 87° ENE 20:16:44 32° SSE
Spot 2 Rocket 3.6 20:11:25 24° S 20:14:30 73° WSW 20:19:37 10° NNW
Cosmos 1535 Rocket 4.5 20:08:44 10° S 20:14:48 85° W 20:20:57 10° N
CARTOSAT-1 3.5 20:20:05 44° SE 20:21:21 72° ENE 20:25:39 10° N
Meteor 1-4 Rocket 3.0 20:18:04 10° NNW 20:21:28 52° W 20:22:26 37° SSW
Cosmos 1184 Rocket 2.8 20:21:02 56° SSW 20:21:38 79° W 20:24:56 10° N
Cosmos 2322 Rocket 3.6 20:17:08 10° N 20:21:54 27° NE 20:24:25 20° E
Cosmos 1190 Rocket 4.5 20:16:54 10° SSW 20:22:07 63° WNW 20:27:24 10° NNE
USA 234 3.2 20:18:45 29° SE 20:22:23 90° SW 20:28:58 10° NW
Terra 2.2 20:21:08 37° ESE 20:22:27 47° ENE 20:27:02 10° N
Cosmos 1605 Rocket 3.8 20:21:08 23° S 20:25:06 79° E 20:31:13 10° N
Cosmos 407 Rocket 4.5 20:19:58 10° SW 20:25:08 49° WNW 20:30:17 10° NNE
Cosmos 1933 Rocket 3.6 20:24:16 47° SE 20:25:08 58° E 20:29:30 10° NNE
Meteor 1-20 Rocket 4.2 20:23:25 25° S 20:26:58 80° E 20:32:51 10° NNE
Cosmos 1238 Rocket 2.5 20:28:02 57° NNE 20:28:02 57° NNE 20:30:29 10° NNE
Okean 1 3.4 20:27:07 10° N 20:31:07 57° E 20:31:27 55° ESE
Cosmos 1602 3.7 20:31:37 60° ESE 20:31:44 61° E 20:35:37 10° NNE
ATLAS 3B R/B 4.3 20:34:00 15° E 20:34:00 15° E 20:36:03 10° ENE
Cosmos 1437 Rocket 3.4 20:32:00 10° N 20:35:27 40° ENE 20:35:27 40° ENE
Cosmos 2360 Rocket 4.0 20:31:46 10° N 20:35:56 20° NE 20:38:35 15° E
SPOT 5 2.5 20:35:54 55° SSE 20:36:50 88° ENE 20:41:12 10° NNW
USA 238 DEB 3.5 20:31:41 10° SSW 20:38:15 74° SE 20:45:08 10° NE
USA 238 3.5 20:31:49 10° SSW 20:38:22 73° SE 20:45:14 10° NE
Meteor 1-19 Rocket 4.1 20:35:20 10° N 20:40:45 67° ENE 20:42:13 47° SE
Iridium 4 Rocket 4.2 20:41:58 29° ENE 20:41:58 29° ENE 20:45:19 10° NNE
SPOT 1/Viking Rocket 4.2 20:39:53 27° SSW 20:42:26 51° W 20:47:32 10° NNW
Cosmos 1980 Rocket 2.5 20:39:28 10° NNW 20:45:04 61° WSW 20:47:05 38° S
Cosmos 1703 Rocket 3.5 20:42:29 10° N 20:46:50 65° E 20:47:05 63° ESE
Cosmos 2242 Rocket 3.4 20:42:23 10° N 20:46:51 89° E 20:47:29 66° S
Meteor 1-14 Rocket 4.2 20:46:52 44° SSE 20:48:44 70° E 20:54:38 10° NNE
SL-4 R/B 2.5 20:45:28 10° W 20:49:15 53° NNW 20:51:35 20° NE
Cosmos 405 Rocket 2.6 20:49:21 76° W 20:49:22 76° W 20:53:06 10° N
Cosmos 1763 Rocket 3.7 20:44:44 10° NNW 20:50:02 60° ENE 20:51:08 49° ESE
BREEZE-M DEB (TANK) 3.7 20:47:21 10° WNW 20:50:36 54° N 21:00:37 10° E
Genesis I 3.5 20:47:00 10° NW 20:50:44 56° WSW 20:50:44 56° WSW
ATLAS 5 CENTAUR R/B 4.4 20:49:31 10° WNW 20:53:41 19° WSW 20:57:17 13° SSW
MOS 1-B Rocket 4.4 20:50:57 10° NNE 20:56:09 36° E 20:56:13 36° E
Cosmos 1459 Rocket 4.2 20:58:06 46° SE 20:59:27 55° E 21:05:37 10° NNE
Cosmos 1697 Rocket 4.4 20:55:57 10° NW 21:00:24 25° WSW 21:03:04 17° SW
Cosmos 1153 Rocket 4.5 21:03:26 37° SSW 21:05:59 80° W 21:12:12 10° N
CENTAUR R/B 2.4 21:04:46 44° S 21:06:43 69° ESE 21:13:38 10° NE
Cosmos 1867 4.4 21:01:39 10° SW 21:06:56 51° NW 21:12:17 10° NNE
Meteor 1-18 Rocket 4.4 21:02:47 10° NNW 21:08:20 66° W 21:09:49 47° SSW
Okean 1-7 2.9 21:04:09 10° N 21:08:30 83° W 21:08:30 83° W
Okean 3 4.2 21:10:24 10° N 21:13:59 43° NE 21:13:59 43° NE
Cosmos 1802 Rocket 4.1 21:13:52 52° SE 21:15:00 60° E 21:21:15 10° NNE
Cosmos 1850 Rocket 3.9 21:14:18 59° SSW 21:15:20 89° WNW 21:20:39 10° NNE
Thor Agena Rocket 4.4 21:12:31 10° NNE 21:16:25 34° ENE 21:16:25 34° ENE
Meteor 2-4 Rocket 3.5 21:12:23 10° N 21:18:07 84° E 21:18:53 67° SSE
Cosmos 1515 4.4 21:15:06 10° NNW 21:18:23 50° WNW 21:18:23 50° WNW
Cosmos 44 3.9 21:17:51 10° NNW 21:22:36 48° NE 21:23:09 46° ENE
ATLAS 5 CENTAUR R/B 2.9 21:19:46 10° NNW 21:22:40 46° NE 21:23:25 42° ENE
Cosmos 2346 Rocket 4.5 21:20:07 10° N 21:26:07 60° ENE 21:26:55 55° ESE
Spot 4 4.3 21:27:26 50° ENE 21:27:26 50° ENE 21:32:01 10° N
BREEZE-M DEB (TANK) 4.4 21:16:25 10° W 21:32:37 84° N 21:35:19 31° E
NOSS 3-2 (A) 4.1 21:27:32 10° WSW 21:33:09 52° NW 21:39:37 10° NNE
NOSS 3-2 (C) 3.5 21:35:51 30° SW 21:38:52 72° NW 21:45:27 10° NE
Cosmos 1816 Rocket 4.5 21:34:58 10° N 21:41:14 64° ENE 21:41:57 60° ESE
Cosmos 841 Rocket 3.4 21:36:46 10° NNW 21:42:00 88° NE 21:42:00 88° NE
Cosmos 540 Rocket 3.4 21:38:15 10° NNW 21:43:22 86° NNE 21:43:22 86° NNE
SL-16 R/B 2.2 21:38:20 10° NNW 21:44:00 69° WSW 21:44:17 68° SW
Lacrosse 5 1.9 21:40:48 10° NW 21:45:31 76° WNW 21:45:31 76° WNW
Cosmos 1570 Rocket 4.0 21:47:58 10° NNW 21:53:10 73° W 21:53:10 73° W
Tsikada Rocket 3.9 21:47:54 10° N 21:54:16 72° E 21:54:55 66° ESE
Cosmos 2219 Rocket 3.6 21:50:13 10° N 21:55:08 29° NE 21:56:38 25° ENE
Cosmos 2208 Rocket 4.0 21:50:07 10° NNW 21:55:11 80° WNW 21:55:11 80° WNW
Cosmos 1814 Rocket 3.9 21:50:33 10° NNW 21:55:32 81° NW 21:55:32 81° NW
Terra 3.7 22:00:02 20° W 22:00:26 21° W 22:04:01 10° NW
Cosmos 2237 4.1 21:54:42 10° NNW 22:00:27 81° ENE 22:00:34 80° E
USA 234 4.4 22:06:06 27° WSW 22:06:06 27° WSW 22:11:19 10° WNW
Cosmos 2322 Rocket 2.5 22:00:45 10° NNW 22:06:13 56° WSW 22:06:13 56° WSW
Meteor 1-11 Rocket 3.7 22:09:09 71° WSW 22:09:25 73° WNW 22:15:09 10° N
Cosmos 2360 Rocket 2.2 22:14:55 10° NNW 22:20:19 76° WNW 22:20:19 76° WNW
COSMOS 2428 3.6 22:16:18 10° NNW 22:21:40 39° NE 22:22:37 36° ENE
ATLAS 3B R/B 2.4 22:21:12 76° SSW 22:21:48 86° SE 22:28:29 10° NE
ALOS 2 3.5 22:27:44 48° NNW 22:27:44 48° NNW 22:30:57 10° NNW
Cosmos 1725 Rocket 4.3 22:27:19 53° WSW 22:28:14 58° WNW 22:34:30 10° N
SL-4 R/B 4.4 22:26:08 10° WNW 22:27:13 16° NW 22:27:13 16° NW
Nimbus 7 Rocket 4.3 22:26:13 10° NNE 22:32:07 85° WNW 22:32:15 84° WSW
Cosmos 2333 Rocket 2.4 22:35:27 10° NNW 22:41:13 65° ENE 22:41:19 65° ENE
Lacrosse 4 Rocket 3.0 22:45:23 32° NNE 22:45:23 32° NNE 22:47:44 10° NNE
Cosmos 2237 Rocket 3.9 22:40:34 10° N 22:45:15 26° NE 22:47:32 20° E
Meteor 2-11 Rocket 4.3 22:51:23 83° W 22:51:27 83° W 22:57:34 10° N
Cosmos 44 Rocket 4.1 22:52:42 10° NNW 22:57:30 48° NE 22:57:30 48° NE
CENTAUR R/B 4.1 22:52:23 10° W 22:58:02 33° NNW 23:04:34 10° NNE
Cosmos 968 Rocket 3.8 22:59:01 63° N 22:59:01 63° N 23:03:21 10° NNE
Cosmos 1975 4.5 23:02:22 32° NNE 23:02:22 32° NNE 23:04:37 10° NNE
Cosmos 1354 Rocket 4.4 23:07:09 59° NE 23:07:09 59° NE 23:11:37 10° NNE
Resurs 1-4 Rocket 4.3 23:05:47 10° ENE 23:08:09 13° E 23:08:21 13° E
Cosmos 1464 Rocket 3.8 23:15:36 83° SE 23:15:45 84° E 23:22:00 10° N
Cosmos 2227 Rocket 3.7 23:22:42 25° E 23:22:42 25° E 23:26:46 10° NE
Helios 1B rocket 4.0 23:19:23 10° NNE 23:21:48 32° NE 23:21:48 32° NE
CZ-4 R/B 4.3 23:18:47 10° NNE 23:23:00 60° NE 23:23:00 60° NE
Meteor 1-21 4.2 23:19:47 10° NNW 23:25:21 79° NW 23:25:21 79° NW
Nadezhda 4 Rocket 3.8 23:31:22 10° N 23:37:41 87° E 23:38:03 80° SSE
Cosmos 2219 Rocket 2.8 23:33:51 10° NW 23:38:19 45° WNW 23:38:19 45° WNW
Cosmos 1975 Rocket 4.4 23:39:33 10° NNW 23:42:25 34° NW 23:42:25 34° NW
Cosmos 2034 Rocket 3.8 23:43:53 79° SW 23:44:15 83° W 23:50:36 10° N
Okean 2 Rocket 3.8 23:45:22 51° NNE 23:45:22 51° NNE 23:48:47 10° N
SL-16 R/B 3.5 23:46:15 29° ESE 23:48:52 43° ENE 23:54:43 10° N
Cosmos 1300 Rocket 4.4 23:52:28 48° NNE 23:52:28 48° NNE 23:55:38 10° N
ADEOS II 4.4 23:49:41 10° ENE 23:51:53 13° E 23:53:32 11° ESE
Cosmos 1092 Rocket 4.0 23:45:40 10° N 23:51:55 71° E 23:52:45 63° SE
GEOS 3 Rocket 3.9 23:48:22 10° NE 23:53:17 58° ESE 23:53:17 58° ESE
CZ-2D R/B 3.3 23:49:29 10° NNE 23:54:25 33° E 23:54:54 33° ESE
